GW0381 Weather Reports


Display with metric or nautical units.
time (UTC)temp
F
wind
direction
speed
MPH
gust
MPH
rain 1hr
in
rain 24hr
in
rain mn
in
humidity
%
barometer
mb
20260508113615 57 3 3.0 7.0 0.00 0.13 0.00 69 1019.5
20260508113318 57 15 4.0 8.0 0.00 0.13 0.00 68 1019.6
20260508113015 57 17 4.0 9.0 0.00 0.13 0.00 69 1019.6
20260508112719 57 25 3.0 6.0 0.00 0.13 0.00 69 1019.5
20260508112536 57 13 3.0 9.0 0.00 0.13 0.00 68 1019.6
20260508112116 56 26 3.0 10.0 0.00 0.13 0.00 68 1019.6
20260508111856 57 28 1.0 4.0 0.00 0.13 0.00 67 1019.6
20260508111520 57 9 2.0 5.0 0.00 0.14 0.00 67 1019.6
20260508111215 58 10 4.0 9.0 0.00 0.14 0.00 69 1019.7
20260508110956 57 7 4.0 10.0 0.00 0.14 0.00 72 1019.7
20260508110615 56 75 3.0 6.0 0.00 0.14 0.00 71 1019.7
20260508110316 55 57 1.0 4.0 0.00 0.14 0.00 72 1019.7
20260508110016 54 41 1.0 3.0 0.00 0.14 0.00 71 1019.7
20260508105715 54 49 4.0 8.0 0.00 0.14 0.00 71 1019.7
20260508105415 54 44 3.0 8.0 0.00 0.14 0.00 72 1019.7
20260508105236 54 38 2.0 7.0 0.00 0.14 0.00 72 1019.7
20260508104856 54 47 3.0 7.0 0.00 0.14 0.00 72 1019.7
20260508104556 54 31 2.0 5.0 0.00 0.14 0.00 73 1019.6
20260508104216 54 22 2.0 5.0 0.00 0.14 0.00 74 1019.6
20260508103915 54 20 4.0 7.0 0.00 0.14 0.00 73 1019.7
20260508103656 55 8 5.0 10.0 0.00 0.14 0.00 73 1019.6
20260508103315 55 9 4.0 7.0 0.00 0.14 0.00 72 1019.6
20260508103055 55 4 4.0 7.0 0.00 0.14 0.00 73 1019.7
20260508102755 55 22 2.0 6.0 0.00 0.14 0.00 71 1019.6
20260508102456 56 323 0.0 1.0 0.00 0.14 0.00 71 1019.6
20260508102118 55 329 1.0 4.0 0.00 0.14 0.00 74 1019.7
20260508101815 54 1 2.0 6.0 0.00 0.14 0.00 75 1019.7
20260508101518 54 8 3.0 7.0 0.00 0.14 0.00 74 1019.8
20260508101216 54 21 3.0 6.0 0.00 0.14 0.00 73 1019.8
20260508100919 55 17 4.0 10.0 0.00 0.14 0.00 73 1019.7
20260508100615 56 15 4.0 10.0 0.00 0.14 0.00 71 1019.7
20260508100316 56 24 4.0 9.0 0.00 0.14 0.00 74 1019.7
20260508100018 54 48 3.0 8.0 0.00 0.14 0.00 74 1019.7
20260508095716 54 61 4.0 10.0 0.00 0.14 0.00 73 1019.7
20260508095456 54 46 4.0 9.0 0.00 0.14 0.00 73 1019.7
20260508095115 54 65 3.0 4.0 0.00 0.14 0.00 73 1019.7
20260508094815 55 34 2.0 5.0 0.00 0.14 0.00 74 1019.8
20260508094515 55 39 5.0 8.0 0.00 0.14 0.00 73 1019.7
20260508094256 54 33 5.0 10.0 0.00 0.14 0.00 75 1019.7
20260508093918 54 52 2.0 4.0 0.00 0.14 0.00 74 1019.7
20260508093736 54 37 5.0 9.0 0.00 0.14 0.00 74 1019.7
20260508093316 54 8 4.0 7.0 0.00 0.14 0.00 74 1019.7
20260508093016 55 12 4.0 8.0 0.00 0.14 0.00 74 1019.7
20260508092716 54 14 3.0 7.0 0.00 0.14 0.00 75 1019.7
20260508092415 54 353 3.0 6.0 0.00 0.14 0.00 76 1019.8
20260508092115 54 15 4.0 8.0 0.00 0.14 0.00 76 1019.8
20260508091859 54 3 4.0 8.0 0.00 0.14 0.00 76 1019.8
20260508091515 53 23 4.0 9.0 0.00 0.14 0.00 77 1019.8
20260508091216 53 9 3.0 7.0 0.00 0.14 0.00 77 1019.8
20260508090916 53 6 3.0 9.0 0.00 0.14 0.00 76 1019.8
20260508090615 53 42 2.0 5.0 0.00 0.14 0.00 76 1019.8
20260508090316 53 35 2.0 5.0 0.00 0.14 0.00 77 1019.8
20260508090016 53 29 4.0 8.0 0.00 0.14 0.00 77 1019.8
20260508085716 53 76 3.0 6.0 0.00 0.14 0.00 75 1019.8
20260508085424 53 79 4.0 7.0 0.00 0.14 0.00 76 1019.7
20260508085115 53 48 1.0 5.0 0.00 0.14 0.00 76 1019.7
20260508084816 54 27 2.0 5.0 0.00 0.14 0.00 76 1019.7
20260508084516 54 12 3.0 5.0 0.00 0.14 0.00 77 1019.6
20260508084216 54 324 2.0 6.0 0.00 0.14 0.00 78 1019.7
20260508083915 54 36 2.0 4.0 0.00 0.14 0.00 78 1019.6
20260508083616 53 329 1.0 4.0 0.00 0.14 0.00 79 1019.6
20260508083316 53 317 2.0 6.0 0.00 0.14 0.00 78 1019.6
20260508083016 53 323 4.0 7.0 0.00 0.14 0.00 80 1019.5
20260508082716 52 294 3.0 7.0 0.00 0.14 0.00 81 1019.5
20260508082415 51 24 2.0 7.0 0.00 0.14 0.00 79 1019.6
20260508082118 51 78 3.0 4.0 0.00 0.14 0.00 79 1019.5
20260508081816 51 74 2.0 3.0 0.00 0.14 0.00 80 1019.5
20260508081556 51 40 3.0 4.0 0.00 0.14 0.00 80 1019.6
20260508081215 51 42 3.0 8.0 0.00 0.14 0.00 80 1019.5
20260508080955 51 8 1.0 4.0 0.00 0.14 0.00 82 1019.4
20260508080655 50 10 2.0 5.0 0.00 0.14 0.00 82 1019.4
20260508080316 50 37 2.0 4.0 0.00 0.14 0.00 82 1019.4
20260508080016 50 23 1.0 4.0 0.00 0.14 0.00 82 1019.4
20260508075756 50 33 2.0 6.0 0.00 0.14 0.00 82 1019.4
20260508075415 50 43 3.0 5.0 0.00 0.14 0.00 82 1019.4
20260508075239 50 44 3.0 5.0 0.00 0.14 0.00 82 1019.4
20260508074816 50 31 3.0 8.0 0.00 0.14 0.00 83 1019.5
20260508074516 50 32 1.0 4.0 0.00 0.14 0.00 84 1019.5
20260508074256 49 23 3.0 6.0 0.00 0.14 0.00 84 1019.5
20260508073916 49 52 2.0 5.0 0.00 0.14 0.00 84 1019.5
20260508073615 49 22 2.0 5.0 0.00 0.14 0.00 85 1019.5
20260508073316 49 26 1.0 4.0 0.00 0.14 0.00 84 1019.5
20260508073016 49 12 1.0 5.0 0.00 0.14 0.00 85 1019.5
20260508072716 49 14 3.0 6.0 0.00 0.14 0.00 85 1019.5
20260508072416 49 40 2.0 4.0 0.00 0.14 0.00 84 1019.5
20260508072116 49 21 2.0 4.0 0.00 0.14 0.00 85 1019.5
20260508071819 49 37 1.0 3.0 0.00 0.14 0.00 85 1019.5
20260508071516 49 40 3.0 7.0 0.00 0.14 0.00 85 1019.4
20260508071216 49 28 2.0 5.0 0.00 0.14 0.00 86 1019.4
20260508070916 48 50 3.0 5.0 0.00 0.14 0.00 86 1019.3
20260508070619 48 53 2.0 5.0 0.00 0.14 0.00 87 1019.3
20260508070316 48 41 3.0 5.0 0.00 0.14 0.00 87 1019.3
20260508070016 48 24 2.0 5.0 0.00 0.14 0.00 87 1019.2
20260508065716 48 35 2.0 7.0 0.00 0.14 0.00 87 1019.2
20260508065419 48 45 3.0 7.0 0.00 0.14 0.00 87 1019.2
20260508065115 48 57 2.0 5.0 0.00 0.14 0.00 87 1019.2
20260508064816 48 30 4.0 8.0 0.00 0.14 0.00 87 1019.1
20260508064516 47 30 3.0 7.0 0.00 0.14 0.00 88 1019.1
20260508064216 47 37 3.0 6.0 0.00 0.14 0.00 88 1019.2
20260508063916 47 36 3.0 6.0 0.00 0.14 0.00 88 1019.2
20260508063616 47 36 4.0 7.0 0.00 0.14 0.00 88 1019.1
20260508063419 47 34 4.0 8.0 0.00 0.14 0.00 88 1019.0
20260508062716 47 44 3.0 9.0 0.00 0.14 0.00 89 1019.0
20260508062416 47 21 4.0 7.0 0.00 0.14 0.00 89 1019.0
20260508062115 47 41 4.0 8.0 0.00 0.14 0.00 89 1019.0
20260508061819 47 36 5.0 8.0 0.00 0.14 0.00 90 1019.0
20260508061516 47 35 3.0 8.0 0.00 0.14 0.00 90 1018.9
20260508061215 46 16 3.0 6.0 0.00 0.14 0.00 90 1019.0
20260508060915 46 8 3.0 6.0 0.00 0.14 0.00 90 1018.9
20260508060616 46 45 2.0 3.0 0.00 0.14 0.00 90 1018.9
20260508060316 46 25 2.0 5.0 0.00 0.14 0.00 90 1018.8
20260508060015 46 18 4.0 8.0 0.00 0.14 0.00 90 1018.8
20260508055716 46 17 3.0 6.0 0.00 0.14 0.00 90 1018.8
20260508055456 46 35 2.0 4.0 0.00 0.14 0.00 90 1018.8
20260508055116 46 35 3.0 5.0 0.00 0.14 0.00 90 1018.7
20260508054815 46 16 4.0 6.0 0.00 0.14 0.00 90 1018.7
20260508054516 46 27 3.0 8.0 0.00 0.14 0.00 90 1018.7
20260508054216 46 18 4.0 7.0 0.00 0.14 0.00 91 1018.7
20260508053919 46 36 2.0 6.0 0.00 0.14 0.00 90 1018.7
20260508053616 46 11 5.0 9.0 0.00 0.14 0.00 90 1018.7
20260508053316 46 14 5.0 9.0 0.00 0.14 0.00 90 1018.6
20260508053016 46 30 3.0 7.0 0.00 0.14 0.00 91 1018.7
20260508052719 46 6 3.0 7.0 0.00 0.14 0.00 91 1018.6
20260508052416 46 12 5.0 10.0 0.00 0.14 0.00 91 1018.7
20260508052116 46 13 5.0 9.0 0.00 0.14 0.00 91 1018.7
20260508051819 46 14 5.0 9.0 0.00 0.14 0.00 91 1018.6
20260508051636 45 14 5.0 9.0 0.00 0.14 0.00 91 1018.6
20260508051215 45 7 4.0 7.0 0.00 0.14 0.00 91 1018.5
20260508050919 45 356 5.0 9.0 0.00 0.14 0.00 91 1018.5
20260508050615 45 10 4.0 8.0 0.00 0.14 0.00 91 1018.5
20260508050316 45 10 5.0 10.0 0.00 0.14 0.00 91 1018.5
20260508050015 45 9 4.0 7.0 0.00 0.14 0.00 91 1018.5
20260508045759 45 4 4.0 9.0 0.00 0.14 0.00 91 1018.5
20260508045416 45 9 3.0 6.0 0.00 0.14 0.00 91 1018.5
20260508045115 45 10 3.0 6.0 0.00 0.14 0.00 91 1018.5
20260508044859 45 14 3.0 5.0 0.00 0.14 0.00 91 1018.5
20260508044515 45 11 3.0 6.0 0.00 0.14 0.00 91 1018.4
20260508044216 45 6 2.0 5.0 0.00 0.14 0.00 91 1018.4
20260508043916 46 13 3.0 6.0 0.00 0.14 0.00 91 1018.4
20260508043619 45 7 2.0 6.0 0.00 0.14 0.00 91 1018.3
20260508043316 45 8 3.0 7.0 0.00 0.14 0.00 91 1018.3
20260508043016 45 10 3.0 5.0 0.00 0.14 0.00 91 1018.3
20260508042716 46 18 2.0 4.0 0.00 0.14 0.00 91 1018.3
20260508042415 46 11 4.0 6.0 0.00 0.14 0.00 91 1018.2
20260508042116 46 8 4.0 8.0 0.00 0.14 0.00 91 1018.2
20260508041816 46 2 2.0 4.0 0.00 0.14 0.00 91 1018.2
20260508041515 46 13 4.0 6.0 0.00 0.14 0.00 91 1018.1
20260508041216 46 11 4.0 8.0 0.00 0.14 0.00 91 1018.1
20260508040916 46 8 4.0 7.0 0.00 0.14 0.00 91 1018.1
20260508040656 46 17 3.0 8.0 0.00 0.14 0.00 91 1018.1
20260508040315 46 357 2.0 3.0 0.00 0.14 0.00 91 1018.1
20260508040016 46 357 1.0 3.0 0.00 0.14 0.00 91 1018.0
20260508035719 46 358 1.0 3.0 0.00 0.14 0.00 91 1018.0
20260508035416 46 12 2.0 6.0 0.00 0.14 0.00 91 1018.0
20260508035115 46 17 2.0 4.0 0.00 0.14 0.00 91 1018.0
20260508034816 46 18 2.0 4.0 0.00 0.14 0.00 91 1018.0
20260508034516 46 346 2.0 5.0 0.00 0.14 0.00 91 1018.0
20260508034215 46 338 1.0 4.0 0.00 0.14 0.00 91 1018.0
20260508034036 46 338 1.0 2.0 0.00 0.14 0.00 91 1018.0
20260508033616 45 338 1.0 2.0 0.00 0.14 0.00 91 1018.1
20260508033356 45 338 2.0 4.0 0.00 0.14 0.00 91 1018.1
20260508033056 45 338 2.0 5.0 0.00 0.14 0.00 91 1018.0
20260508032756 45 338 1.0 2.0 0.00 0.14 0.00 91 1017.9
20260508032416 45 338 2.0 4.0 0.00 0.14 0.00 91 1018.0
20260508032115 45 347 2.0 5.0 0.00 0.14 0.00 91 1018.0
20260508031816 45 13 2.0 4.0 0.00 0.14 0.00 91 1018.0
20260508031515 45 13 2.0 4.0 0.00 0.14 0.00 91 1018.0
20260508031216 45 13 1.0 4.0 0.00 0.14 0.00 91 1018.0
20260508030916 45 13 1.0 2.0 0.00 0.14 0.00 91 1018.0
20260508030616 45 13 2.0 4.0 0.00 0.14 0.00 91 1018.0
20260508030359 45 13 1.0 2.0 0.00 0.14 0.00 91 1018.0
20260508030016 45 13 1.0 2.0 0.00 0.14 0.00 91 1018.0
20260508025731 45 13 2.0 5.0 0.00 0.14 0.00 91 1017.9
20260508025415 45 10 3.0 5.0 0.00 0.14 0.00 91 1017.9
20260508025116 45 7 2.0 3.0 0.00 0.14 0.00 91 1017.9
20260508024856 45 7 2.0 3.0 0.00 0.14 0.00 91 1017.9
20260508024559 45 7 1.0 4.0 0.00 0.14 0.00 91 1017.9
20260508024216 45 7 2.0 3.0 0.00 0.14 0.00 91 1017.9
20260508023915 45 7 2.0 3.0 0.00 0.14 0.00 91 1017.9
20260508023656 45 7 2.0 4.0 0.00 0.14 0.00 91 1017.9
20260508023315 45 7 2.0 4.0 0.00 0.14 0.00 91 1017.8
20260508023016 45 11 2.0 4.0 0.00 0.14 0.00 91 1017.9
20260508022716 45 11 3.0 5.0 0.00 0.14 0.00 91 1017.8
20260508022416 45 9 2.0 5.0 0.00 0.14 0.00 91 1017.8
20260508022119 45 6 2.0 4.0 0.00 0.14 0.00 91 1017.8
20260508021815 45 2 2.0 3.0 0.00 0.14 0.00 91 1017.8
20260508021517 45 9 2.0 6.0 0.00 0.14 0.00 91 1017.8
20260508021216 45 11 2.0 4.0 0.00 0.14 0.00 91 1017.8
20260508020918 45 9 2.0 4.0 0.00 0.14 0.00 91 1017.8
20260508020615 45 14 2.0 5.0 0.00 0.14 0.00 91 1017.8
20260508020316 45 9 2.0 4.0 0.00 0.14 0.00 91 1017.7
20260508020056 45 338 1.0 4.0 0.00 0.14 0.00 91 1017.7
20260508015718 45 324 1.0 2.0 0.00 0.14 0.00 91 1017.7
20260508015415 45 328 2.0 4.0 0.00 0.14 0.00 91 1017.7
20260508015116 45 343 2.0 4.0 0.00 0.14 0.00 91 1017.7
20260508014856 45 21 1.0 2.0 0.00 0.14 0.00 91 1017.7
20260508014516 45 21 1.0 2.0 0.00 0.14 0.00 91 1017.6
20260508014215 45 21 1.0 4.0 0.00 0.14 0.00 91 1017.6
20260508013916 45 21 1.0 2.0 0.00 0.14 0.00 91 1017.6
20260508013615 45 21 2.0 4.0 0.00 0.14 0.00 91 1017.6
20260508013359 45 21 2.0 4.0 0.00 0.14 0.00 91 1017.6
20260508013016 45 21 2.0 4.0 0.00 0.14 0.00 91 1017.6
20260508012716 45 21 1.0 2.0 0.00 0.14 0.00 91 1017.5
20260508012416 45 21 1.0 2.0 0.00 0.14 0.00 91 1017.6
20260508012159 45 21 1.0 2.0 0.00 0.14 0.00 91 1017.5
20260508011816 45 36 2.0 3.0 0.00 0.14 0.00 91 1017.5
20260508011515 45 31 2.0 4.0 0.00 0.14 0.00 91 1017.5
20260508011216 45 6 1.0 3.0 0.00 0.14 0.00 91 1017.5
20260508010915 45 6 1.0 3.0 0.00 0.14 0.00 91 1017.6
20260508010616 45 6 2.0 3.0 0.00 0.14 0.00 91 1017.6
20260508010316 45 6 2.0 4.0 0.00 0.14 0.00 91 1017.6
20260508010016 45 6 2.0 4.0 0.00 0.14 0.00 91 1017.6
20260508005715 45 9 2.0 5.0 0.00 0.14 0.00 91 1017.7
20260508005416 45 9 3.0 6.0 0.00 0.14 0.00 91 1017.6
20260508005116 45 14 3.0 5.0 0.00 0.14 0.00 91 1017.6
20260508004855 45 14 3.0 5.0 0.00 0.14 0.00 91 1017.6
20260508004515 45 14 1.0 4.0 0.00 0.14 0.00 91 1017.7
20260508004339 45 14 2.0 4.0 0.00 0.14 0.00 91 1017.6
20260508003916 45 14 1.0 2.0 0.00 0.14 0.00 91 1017.6
20260508003616 45 14 3.0 5.0 0.00 0.14 0.00 91 1017.7
20260508003316 45 23 3.0 5.0 0.00 0.14 0.00 91 1017.6
20260508003059 45 34 2.0 4.0 0.00 0.14 0.00 91 1017.6
20260508002715 45 45 2.0 3.0 0.00 0.14 0.00 91 1017.6
20260508002456 45 49 2.0 3.0 0.00 0.14 0.00 91 1017.7
20260508002116 45 49 1.0 2.0 0.00 0.14 0.00 91 1017.7
20260508001819 45 49 1.0 2.0 0.00 0.14 0.00 91 1017.7
20260508001516 45 49 1.0 3.0 0.00 0.14 0.00 91 1017.7
20260508001216 45 49 1.0 2.0 0.00 0.14 0.00 91 1017.7
20260508000916 45 49 1.0 2.0 0.00 0.14 0.00 91 1017.7
20260508000658 46 49 1.0 2.0 0.00 0.14 0.00 91 1017.7
20260508000357 46 49 1.0 2.0 0.00 0.14 0.00 91 1017.7
20260508000016 46 49 0.0 1.0 0.00 0.14 0.00 91 1017.6
20260507235759 46 49 0.0 2.0 0.00 0.14 0.00 91 1017.7
20260507235416 46 49 0.0 2.0 0.00 0.14 0.00 91 1017.7
20260507235116 46 49 0.0 2.0 0.00 0.14 0.00 91 1017.8
20260507234819 46 49 0.0 2.0 0.00 0.14 0.00 91 1017.8
20260507234515 46 49 0.0 2.0 0.00 0.14 0.00 91 1017.8
20260507234256 46 49 1.0 2.0 0.00 0.14 0.00 91 1017.9
20260507233916 46 49 1.0 3.0 0.00 0.14 0.00 91 1017.9
20260507233659 46 49 1.0 2.0 0.00 0.14 0.00 91 1017.8
20260507233315 46 49 1.0 2.0 0.00 0.14 0.00 91 1017.9
20260507233016 46 49 1.0 2.0 0.00 0.14 0.00 91 1017.9
20260507232716 46 49 0.0 1.0 0.00 0.14 0.00 91 1018.0
20260507232415 46 49 0.0 2.0 0.00 0.14 0.00 91 1017.9
20260507232116 46 49 1.0 2.0 0.00 0.14 0.00 91 1018.0
20260507231817 46 49 1.0 2.0 0.00 0.14 0.00 91 1018.0
20260507231516 46 49 1.0 2.0 0.00 0.14 0.00 91 1018.0
20260507231216 46 49 0.0 2.0 0.00 0.14 0.00 91 1018.0
20260507230916 46 49 1.0 2.0 0.00 0.14 0.00 91 1018.0
20260507230616 46 49 0.0 1.0 0.00 0.14 0.00 91 1018.0
20260507230315 46 49 0.0 2.0 0.00 0.14 0.00 91 1018.0
20260507230016 46 49 0.0 1.0 0.00 0.14 0.00 91 1018.0
20260507225716 46 49 0.0 1.0 0.00 0.14 0.00 91 1018.0
20260507225415 46 49 1.0 1.0 0.00 0.14 0.00 91 1018.0
20260507225159 46 49 0.0 1.0 0.00 0.14 0.00 91 1018.0
20260507224816 46 49 0.0 2.0 0.00 0.14 0.00 91 1017.9
20260507224516 46 49 1.0 2.0 0.00 0.14 0.00 91 1017.9
20260507224215 46 49 1.0 1.0 0.00 0.14 0.00 91 1017.9
20260507223919 46 49 1.0 1.0 0.00 0.14 0.00 91 1017.9
20260507223616 46 49 0.0 1.0 0.01 0.14 0.00 91 1017.8
20260507223316 46 49 0.0 1.0 0.01 0.14 0.00 91 1017.8
20260507223016 46 0.0 0.0 0.01 0.14 0.00 90 1017.8
20260507222718 46 0.0 0.0 0.01 0.14 0.00 91 1017.8
20260507222415 46 49 0.0 1.0 0.01 0.14 0.00 91 1017.8
20260507222115 46 49 0.0 1.0 0.01 0.14 0.00 91 1017.7
20260507221816 46 49 0.0 1.0 0.01 0.14 0.00 91 1017.7
20260507221515 46 49 0.0 1.0 0.01 0.14 0.00 91 1017.7
20260507221255 46 49 0.0 1.0 0.01 0.14 0.00 90 1017.7
20260507220915 46 49 0.0 1.0 0.01 0.14 0.00 90 1017.7
20260507220618 46 49 0.0 1.0 0.01 0.14 0.00 90 1017.7
20260507220315 46 49 0.0 1.0 0.01 0.14 0.00 90 1017.7
20260507220015 46 49 0.0 1.0 0.01 0.14 0.00 90 1017.7
20260507215715 46 49 0.0 1.0 0.01 0.14 0.14 90 1017.7
20260507215416 46 49 0.0 1.0 0.01 0.14 0.14 90 1017.7
20260507215116 46 49 0.0 1.0 0.01 0.14 0.14 90 1017.7
20260507214815 46 0.0 0.0 0.01 0.14 0.14 90 1017.6
20260507214516 46 0.0 0.0 0.02 0.14 0.14 90 1017.6
20260507214216 46 49 0.0 1.0 0.02 0.14 0.14 90 1017.6
20260507213955 46 0.0 0.0 0.02 0.14 0.14 90 1017.6
20260507213615 46 0.0 0.0 0.01 0.13 0.13 90 1017.6
20260507213316 46 0.0 0.0 0.01 0.13 0.13 90 1017.6
20260507213016 46 0.0 0.0 0.01 0.13 0.13 90 1017.5
20260507212716 46 49 0.0 1.0 0.01 0.13 0.13 90 1017.5
20260507212415 46 0.0 0.0 0.01 0.13 0.13 90 1017.6
20260507212119 46 0.0 0.0 0.01 0.13 0.13 90 1017.4
20260507211816 46 49 0.0 1.0 0.01 0.13 0.13 89 1017.4
20260507211516 46 49 0.0 1.0 0.01 0.13 0.13 89 1017.4
20260507211256 46 49 0.0 1.0 0.01 0.13 0.13 89 1017.4
20260507210919 46 0.0 0.0 0.01 0.13 0.13 89 1017.4
20260507210616 46 49 1.0 2.0 0.01 0.13 0.13 89 1017.4
20260507210316 46 49 1.0 2.0 0.01 0.13 0.13 89 1017.4
20260507210016 46 49 1.0 2.0 0.01 0.13 0.13 89 1017.4
20260507205716 46 49 1.0 3.0 0.01 0.13 0.13 89 1017.4
20260507205416 46 49 1.0 2.0 0.01 0.13 0.13 89 1017.3
20260507205116 46 49 1.0 4.0 0.01 0.13 0.13 89 1017.3
20260507204816 46 49 1.0 3.0 0.01 0.13 0.13 89 1017.2
20260507204516 46 49 2.0 4.0 0.00 0.13 0.13 89 1017.2
20260507204216 46 49 2.0 2.0 0.00 0.13 0.13 89 1017.2
20260507203916 46 49 2.0 3.0 0.01 0.13 0.13 89 1017.2
20260507203616 46 49 2.0 4.0 0.01 0.13 0.13 89 1017.1
20260507203315 46 49 2.0 4.0 0.01 0.13 0.13 89 1017.1
20260507203016 46 49 2.0 3.0 0.01 0.13 0.13 89 1017.1
20260507202716 46 54 2.0 4.0 0.01 0.13 0.13 89 1017.0
20260507202416 46 45 1.0 3.0 0.01 0.13 0.13 89 1017.0
20260507202156 46 46 1.0 3.0 0.01 0.13 0.13 89 1017.0
20260507201816 46 40 2.0 4.0 0.01 0.13 0.13 89 1017.0
20260507201556 46 36 2.0 4.0 0.01 0.13 0.13 89 1016.9
20260507201216 46 37 2.0 3.0 0.01 0.13 0.13 89 1017.0
20260507200915 46 37 1.0 2.0 0.01 0.13 0.13 89 1017.0
20260507200736 46 37 1.0 2.0 0.01 0.13 0.13 89 1016.9
20260507200316 46 37 1.0 4.0 0.01 0.13 0.13 89 1016.9
20260507200016 46 42 2.0 4.0 0.01 0.13 0.13 89 1016.9
20260507195756 46 47 3.0 7.0 0.01 0.13 0.13 89 1016.9
20260507195419 46 39 3.0 10.0 0.01 0.13 0.13 89 1016.9
20260507195116 46 39 1.0 4.0 0.01 0.13 0.13 89 1016.8
20260507194816 46 39 2.0 4.0 0.01 0.13 0.13 89 1016.8
20260507194516 46 39 1.0 3.0 0.01 0.13 0.13 89 1016.7
20260507194215 46 39 1.0 3.0 0.01 0.13 0.13 89 1016.8
20260507193915 46 39 1.0 2.0 0.00 0.12 0.12 89 1016.7
20260507193616 46 39 2.0 3.0 0.00 0.12 0.12 89 1016.7
20260507193316 46 39 1.0 3.0 0.00 0.12 0.12 89 1016.7
20260507193016 46 42 1.0 3.0 0.00 0.12 0.12 89 1016.6
20260507192758 46 40 2.0 3.0 0.00 0.12 0.12 89 1016.6
20260507192456 46 27 1.0 3.0 0.00 0.12 0.12 89 1016.6
20260507192116 46 14 2.0 5.0 0.00 0.12 0.12 89 1016.6
20260507191819 46 354 2.0 3.0 0.00 0.12 0.12 89 1016.6
20260507191515 46 26 1.0 3.0 0.00 0.12 0.12 89 1016.5
20260507191216 46 28 1.0 3.0 0.00 0.12 0.12 89 1016.5
20260507190956 46 17 2.0 4.0 0.00 0.12 0.12 89 1016.4
20260507190616 47 9 2.0 4.0 0.00 0.12 0.12 89 1016.4
20260507190316 47 13 1.0 4.0 0.00 0.12 0.12 89 1016.3
20260507190136 47 13 1.0 4.0 0.00 0.12 0.12 89 1016.3
20260507185716 47 13 1.0 2.0 0.00 0.12 0.12 88 1016.3
20260507185416 47 13 2.0 4.0 0.00 0.12 0.12 88 1016.2
20260507185116 47 12 2.0 5.0 0.00 0.12 0.12 88 1016.2
20260507184816 47 12 2.0 4.0 0.00 0.12 0.12 88 1016.2
20260507184516 47 14 2.0 5.0 0.00 0.12 0.12 88 1016.2
20260507184216 47 24 1.0 5.0 0.00 0.12 0.12 88 1016.1
20260507183916 47 21 1.0 2.0 0.00 0.12 0.12 88 1016.1
20260507183616 47 21 1.0 4.0 0.00 0.12 0.12 88 1016.1
20260507183319 47 21 2.0 4.0 0.00 0.12 0.12 88 1016.1
20260507183016 47 21 2.0 5.0 0.00 0.12 0.12 88 1016.0
20260507182716 47 24 2.0 5.0 0.00 0.12 0.12 88 1016.0
20260507182416 47 25 1.0 4.0 0.00 0.12 0.12 88 1016.0
20260507182116 47 29 2.0 3.0 0.00 0.12 0.12 87 1015.9
20260507181816 47 22 2.0 4.0 0.00 0.12 0.12 87 1015.9
20260507181516 47 20 2.0 5.0 0.00 0.12 0.12 87 1015.9
20260507181216 47 38 2.0 6.0 0.00 0.12 0.12 87 1015.8
20260507180916 47 18 2.0 5.0 0.00 0.12 0.12 87 1015.8
20260507180616 47 26 1.0 4.0 0.00 0.12 0.12 87 1015.8
20260507180356 47 34 2.0 4.0 0.00 0.12 0.12 87 1015.8
20260507180016 47 34 2.0 4.0 0.00 0.12 0.12 87 1015.8
20260507175716 47 26 2.0 4.0 0.00 0.12 0.12 87 1015.8
20260507175416 47 36 2.0 5.0 0.00 0.12 0.12 87 1015.8
20260507175115 47 39 3.0 6.0 0.00 0.12 0.12 87 1015.7
20260507174817 47 27 2.0 5.0 0.00 0.12 0.12 87 1015.8
20260507174516 47 36 2.0 4.0 0.00 0.12 0.12 87 1015.7
20260507174215 47 43 1.0 3.0 0.00 0.12 0.12 86 1015.7
20260507173916 47 43 1.0 3.0 0.00 0.12 0.12 86 1015.7
20260507173736 47 35 2.0 4.0 0.00 0.12 0.12 86 1015.8
20260507173316 47 36 4.0 8.0 0.00 0.12 0.12 86 1015.7
20260507173018 48 28 4.0 9.0 0.00 0.12 0.12 86 1015.7
20260507172716 48 28 2.0 6.0 0.00 0.12 0.12 86 1015.7
20260507172415 48 41 1.0 5.0 0.00 0.12 0.12 86 1015.7
20260507172116 48 37 2.0 7.0 0.00 0.12 0.12 86 1015.6
20260507171818 48 37 2.0 5.0 0.00 0.12 0.12 86 1015.6
20260507171515 48 36 3.0 5.0 0.00 0.12 0.12 86 1015.5
20260507171216 48 51 2.0 5.0 0.00 0.12 0.12 85 1015.5
20260507170916 48 36 3.0 7.0 0.00 0.12 0.12 86 1015.5
20260507170615 48 40 4.0 8.0 0.00 0.12 0.12 86 1015.5
20260507170316 48 38 3.0 5.0 0.00 0.12 0.12 85 1015.5
20260507170016 48 44 3.0 7.0 0.00 0.12 0.12 86 1015.5
20260507165716 48 31 4.0 11.0 0.00 0.12 0.12 85 1015.6
20260507165456 48 28 3.0 7.0 0.00 0.12 0.12 86 1015.5
20260507165116 48 52 3.0 9.0 0.00 0.12 0.12 86 1015.5
20260507164815 48 22 3.0 7.0 0.00 0.12 0.12 86 1015.5
20260507164515 48 25 4.0 8.0 0.00 0.12 0.12 85 1015.5
20260507164216 48 40 3.0 8.0 0.00 0.12 0.12 86 1015.4
20260507163915 48 34 4.0 8.0 0.00 0.12 0.12 86 1015.4
20260507163615 48 20 4.0 7.0 0.00 0.12 0.12 86 1015.3
20260507163316 48 29 5.0 9.0 0.00 0.12 0.12 86 1015.3
20260507163019 48 30 4.0 8.0 0.00 0.12 0.12 86 1015.3
20260507162716 48 37 5.0 11.0 0.00 0.12 0.12 86 1015.3
20260507162415 48 29 3.0 6.0 0.00 0.12 0.12 87 1015.3
20260507162116 48 35 3.0 9.0 0.00 0.12 0.12 86 1015.4
20260507161816 48 35 3.0 7.0 0.00 0.12 0.12 86 1015.4
20260507161516 48 38 4.0 8.0 0.01 0.12 0.12 86 1015.4
20260507161256 48 44 5.0 8.0 0.01 0.12 0.12 86 1015.3
20260507160916 48 46 5.0 10.0 0.01 0.12 0.12 86 1015.3
20260507160659 48 35 5.0 10.0 0.01 0.12 0.12 86 1015.4
20260507160316 48 52 5.0 8.0 0.01 0.12 0.12 86 1015.4
20260507160016 48 41 5.0 8.0 0.01 0.12 0.12 86 1015.4
20260507155756 48 37 4.0 8.0 0.01 0.12 0.12 86 1015.3
20260507155456 48 34 4.0 9.0 0.01 0.12 0.12 86 1015.3
20260507155156 48 47 4.0 7.0 0.01 0.12 0.12 86 1015.3
20260507154816 48 43 3.0 6.0 0.01 0.12 0.12 87 1015.4
20260507154515 48 45 5.0 9.0 0.01 0.12 0.12 87 1015.4
20260507154216 48 36 4.0 8.0 0.01 0.12 0.12 87 1015.4
20260507153916 48 35 5.0 10.0 0.01 0.12 0.12 86 1015.4
20260507153659 48 55 4.0 10.0 0.01 0.12 0.12 86 1015.4
20260507153356 48 54 5.0 10.0 0.01 0.12 0.12 87 1015.4
20260507153056 48 58 4.0 9.0 0.02 0.12 0.12 87 1015.4
20260507152716 48 41 3.0 8.0 0.02 0.12 0.12 86 1015.3
20260507152415 48 38 4.0 9.0 0.02 0.12 0.12 86 1015.3
20260507152115 48 43 4.0 8.0 0.02 0.12 0.12 86 1015.3
20260507151819 48 47 6.0 11.0 0.02 0.12 0.12 87 1015.2
20260507151516 48 41 6.0 12.0 0.01 0.11 0.11 87 1015.2
20260507151216 48 43 4.0 9.0 0.01 0.11 0.11 87 1015.2
20260507150915 48 46 5.0 9.0 0.01 0.11 0.11 87 1015.2
20260507150616 48 44 2.0 7.0 0.01 0.11 0.11 87 1015.1
20260507150316 48 36 4.0 8.0 0.01 0.11 0.11 87 1015.1
20260507150016 48 41 4.0 9.0 0.02 0.11 0.11 87 1015.0
20260507145716 48 37 4.0 8.0 0.02 0.11 0.11 87 1015.0
20260507145416 48 34 4.0 10.0 0.02 0.11 0.11 87 1015.0
20260507145116 48 43 5.0 10.0 0.02 0.11 0.11 87 1014.9
20260507144816 48 39 3.0 9.0 0.02 0.11 0.11 87 1014.9
20260507144516 48 34 3.0 7.0 0.02 0.11 0.11 87 1014.9
20260507144215 48 39 5.0 9.0 0.02 0.11 0.11 87 1014.9
20260507143917 48 41 5.0 8.0 0.02 0.11 0.11 87 1014.8
20260507143615 48 45 4.0 8.0 0.02 0.11 0.11 87 1014.9
20260507143316 48 46 5.0 10.0 0.02 0.11 0.11 87 1014.9
20260507143016 48 44 7.0 12.0 0.01 0.10 0.10 87 1014.8
20260507142719 48 43 5.0 11.0 0.01 0.10 0.10 87 1014.8
20260507142416 48 47 6.0 11.0 0.01 0.10 0.10 87 1014.8
20260507142115 48 34 6.0 11.0 0.01 0.10 0.10 87 1014.8
20260507141819 48 44 5.0 10.0 0.01 0.10 0.10 87 1014.8
20260507141556 48 37 5.0 9.0 0.01 0.10 0.10 87 1014.7
20260507141216 48 34 6.0 13.0 0.01 0.10 0.10 87 1014.7
20260507140916 48 47 5.0 12.0 0.02 0.10 0.10 88 1014.7
20260507140616 48 27 5.0 14.0 0.02 0.10 0.10 88 1014.7
20260507140316 47 48 2.0 8.0 0.02 0.10 0.10 88 1014.7
20260507140015 47 38 5.0 10.0 0.01 0.09 0.09 88 1014.6
20260507135716 47 32 6.0 10.0 0.01 0.09 0.09 88 1014.6
20260507135416 47 29 5.0 11.0 0.01 0.09 0.09 88 1014.6
20260507135116 47 41 6.0 12.0 0.01 0.09 0.09 88 1014.7
20260507134856 47 39 6.0 14.0 0.02 0.09 0.09 88 1014.6
20260507134516 47 33 5.0 10.0 0.02 0.09 0.09 88 1014.6
20260507134336 47 26 6.0 12.0 0.02 0.09 0.09 88 1014.5
20260507133918 47 30 6.0 12.0 0.02 0.09 0.09 88 1014.5
20260507133656 47 23 4.0 9.0 0.02 0.09 0.09 88 1014.4
20260507133316 47 20 5.0 13.0 0.02 0.09 0.09 88 1014.4
20260507133056 47 33 3.0 7.0 0.03 0.09 0.09 89 1014.4
20260507132839 47 34 5.0 13.0 0.03 0.09 0.09 89 1014.4
20260507132415 47 30 5.0 8.0 0.04 0.09 0.09 89 1014.3
20260507132156 47 30 7.0 14.0 0.04 0.09 0.09 89 1014.4
20260507131818 47 36 3.0 8.0 0.05 0.09 0.09 89 1014.4
20260507131516 47 32 4.0 9.0 0.05 0.09 0.09 89 1014.4
20260507131215 47 37 5.0 9.0 0.06 0.09 0.09 89 1014.4
20260507130916 47 21 5.0 10.0 0.05 0.09 0.09 89 1014.4
20260507130616 47 10 5.0 12.0 0.05 0.09 0.09 89 1014.4
20260507130316 47 11 3.0 8.0 0.05 0.09 0.09 89 1014.4
20260507130015 47 16 4.0 9.0 0.06 0.09 0.09 89 1014.3
20260507125755 47 15 7.0 12.0 0.06 0.09 0.09 89 1014.3
20260507125419 47 21 3.0 7.0 0.06 0.09 0.09 89 1014.4
20260507125115 47 22 5.0 10.0 0.06 0.09 0.09 89 1014.4
20260507124816 47 17 5.0 8.0 0.06 0.08 0.08 89 1014.4
20260507124516 47 22 5.0 9.0 0.06 0.08 0.08 89 1014.3
20260507124339 46 12 5.0 9.0 0.06 0.08 0.08 89 1014.3
20260507123916 46 14 5.0 9.0 0.06 0.08 0.08 89 1014.2
20260507123615 46 20 5.0 11.0 0.06 0.07 0.07 88 1014.2
20260507123316 46 20 6.0 12.0 0.06 0.07 0.07 88 1014.2
20260507123015 46 12 6.0 12.0 0.06 0.06 0.06 88 1014.1
20260507122716 46 20 5.0 12.0 0.06 0.06 0.06 88 1014.0
20260507122619 46 13 4.0 8.0 0.05 0.06 0.06 88 1014.0
20260507122116 47 25 5.0 12.0 0.05 0.06 0.06 88 1013.9
20260507121816 47 15 4.0 7.0 0.04 0.05 0.05 88 1013.9
20260507121516 47 24 3.0 9.0 0.05 0.05 0.05 88 1013.9
20260507121216 47 17 6.0 12.0 0.04 0.04 0.04 88 1013.8
20260507120916 47 15 3.0 12.0 0.04 0.04 0.04 88 1013.8
20260507120659 47 24 4.0 9.0 0.04 0.04 0.04 88 1013.7
20260507120316 47 26 4.0 8.0 0.04 0.04 0.04 88 1013.7
20260507120016 47 29 5.0 10.0 0.03 0.03 0.03 88 1013.7
20260507115716 47 15 3.0 6.0 0.03 0.03 0.03 87 1013.7
20260507115415 47 19 5.0 10.0 0.03 0.03 0.03 87 1013.6
20260507115159 47 25 5.0 11.0 0.03 0.03 0.03 87 1013.7
20260507114815 47 33 4.0 8.0 0.02 0.02 0.02 87 1013.6
20260507114556 47 36 4.0 9.0 0.02 0.02 0.02 87 1013.6
20260507114216 47 19 4.0 9.0 0.02 0.02 0.02 86 1013.6
20260507113919 47 35 5.0 8.0 0.02 0.02 0.02 86 1013.7